Volver al catálogo

STARLINK-37568

ActivoComunicacionesSSO
NORAD 69492·PAYLOAD·🇺🇸 United States

Lanzado Jun 11, 2026 desde Vandenberg Space Force Base

Loading…

Próximos Pases (próximas 24 horas)

TLE

ActualizadoSource: CelesTrak SupGP

Época: Sep 14, 2026, 23:16 UTC

1 69492C 26131Q   26257.96993056  .00036530  00000+0  11339-2 0  2574
2 69492  97.2832 278.9412 0000973  76.0398 213.1264 15.33424796    12

Sigue STARLINK-37568 en tiempo real con AllMySat

Download on the App Store